Theta_e
339 341 342 343 342 342 342 342 340 339 340 340 337 340 340 341 340 339 337 336 334 334 335 337 337 336 336 336 336 337 337 337 336 337 337 336 336 336 336 336 338 338 337 336 334 333 331 331 330 330 331 336
337 338 340 340 340 341 340 342 342 341 340 340 340 339 338 337 338 339 338 338 334 335 335 337 339 336 335 334 335 336 337 337 337 336 336 336 335 336 335 335 336 337 336 335 333 332 330 329 329 329 330 335
345 334 337 337 337 339 339 339 339 337 335 336 335 334 333 333 332 333 335 337 335 334 334 334 337 338 337 336 335 335 336 336 336 335 335 335 335 335 334 335 335 335 334 333 331 329 328 327 327 327 332 335
345 335 331 334 335 335 336 336 335 332 330 328 327 327 329 329 333 331 333 326 332 330 330 330 333 334 336 335 334 333 335 334 335 334 334 334 334 334 334 335 334 332 332 330 329 327 326 326 326 335 334 335
343 344 331 332 330 331 332 332 331 329 324 324 323 326 324 328 336 336 335 334 334 326 334 323 327 334 335 335 335 336 334 334 334 334 334 334 333 333 333 329 327 327 329 328 326 325 324 322 334 335 335 334
342 344 338 342 342 342 336 329 327 334 339 334 338 323 333 336 335 334 335 335 333 332 333 332 323 327 332 334 332 334 333 333 334 334 333 333 332 331 328 325 333 329 322 321 322 321 319 332 334 334 334 333
341 341 342 342 340 340 333 337 339 340 338 338 338 338 337 333 334 334 334 335 333 333 325 330 322 325 329 331 330 331 333 332 332 332 332 330 327 325 324 332 334 333 333 330 317 319 331 334 333 334 333 333
340 341 341 340 339 338 338 338 339 340 339 339 338 338 336 333 335 335 334 326 325 330 332 330 321 321 323 324 324 325 330 329 329 329 326 324 322 325 329 332 331 332 333 332 333 333 332 333 333 334 333 332
339 340 340 340 339 338 337 336 338 338 338 338 338 337 334 335 335 335 333 333 332 332 332 331 332 332 332 332 332 325 330 330 331 328 329 327 326 330 331 331 331 331 331 331 332 332 332 332 333 334 333 332
338 338 339 339 339 338 337 337 335 337 336 336 337 336 335 334 334 334 333 333 333 333 332 331 331 331 331 331 330 330 329 329 329 328 328 328 328 327 328 329 330 330 329 330 330 330 331 331 332 332 332 331
339 338 338 338 338 337 336 337 336 335 336 335 336 336 335 333 332 332 331 332 332 331 332 331 331 330 331 331 330 330 329 328 327 326 326 326 327 326 327 327 327 328 328 329 330 330 331 331 331 332 331 331
337 338 337 338 338 337 335 335 335 335 335 336 334 334 333 331 332 331 330 331 331 331 331 331 331 331 330 330 329 329 328 327 325 324 325 326 326 325 326 326 326 326 326 327 328 329 329 330 330 330 331 330
337 337 337 338 338 336 333 335 335 335 335 334 333 333 334 333 331 330 331 331 330 331 330 331 331 330 329 329 328 327 326 326 325 324 324 324 324 325 325 325 325 325 325 326 326 326 327 328 328 328 330 330
337 337 337 337 337 337 336 335 335 336 334 334 333 332 333 332 331 330 329 330 330 330 330 331 331 330 330 328 327 326 325 325 324 324 323 324 324 324 324 324 324 323 324 324 325 325 325 326 325 326 327 328
338 337 337 337 337 337 335 335 334 334 334 334 333 333 332 332 332 331 331 330 330 329 330 330 330 329 329 328 326 326 326 324 324 324 323 323 323 323 324 323 323 323 324 324 324 324 324 325 325 325 326 326
338 337 337 337 337 336 337 336 335 333 332 331 332 334 332 332 331 330 330 331 330 329 330 329 328 329 328 327 327 325 325 323 323 322 322 322 323 323 323 323 323 323 322 323 323 323 323 324 323 324 325 325
338 338 337 336 337 337 337 336 335 334 333 332 332 332 332 331 331 330 330 330 330 329 329 329 329 328 328 328 327 325 323 322 322 321 320 320 320 321 321 321 321 321 321 321 322 321 322 322 322 323 323 324
338 338 338 337 337 337 337 337 335 334 334 333 332 331 331 331 331 329 329 329 329 329 328 328 328 327 327 328 327 324 322 321 321 320 319 318 318 316 318 319 320 319 319 319 319 319 320 320 321 322 322 322
337 338 338 337 337 336 336 336 336 336 335 334 332 330 329 329 329 329 329 329 327 327 327 327 326 326 326 327 325 322 321 321 319 319 318 318 316 317 317 318 319 318 318 318 317 318 318 319 319 318 319 321
337 338 338 338 332 336 337 336 335 335 335 334 333 331 329 329 328 328 327 327 327 326 326 326 325 325 325 324 322 321 319 319 318 318 318 317 317 316 316 316 317 317 317 317 317 318 317 318 317 317 318 318
336 337 337 338 338 337 337 336 336 336 336 335 334 331 330 330 329 328 328 326 325 325 324 324 324 324 324 323 321 321 320 318 318 317 315 316 316 317 316 316 316 316 316 316 316 317 316 316 315 315 315 315
336 336 337 337 338 337 337 336 336 336 336 335 335 334 331 331 330 330 329 328 325 324 322 322 322 323 322 322 321 321 319 317 317 315 315 315 316 316 315 314 314 314 313 314 315 314 314 314 313 314 316 316
336 336 336 337 337 337 337 337 337 337 336 336 336 335 334 331 330 328 330 329 327 325 324 323 323 322 322 322 322 321 319 318 318 317 317 316 316 314 313 312 313 313 312 312 312 312 310 310 310 312 312 312
334 334 333 332 334 335 335 337 335 336 336 336 336 336 335 333 332 330 329 328 327 327 327 326 323 323 323 322 320 319 319 318 317 316 314 315 314 310 309 309 310 310 310 310 308 307 307 306 306 308 309 309
332 331 331 332 332 331 333 334 337 336 336 336 336 336 335 334 333 332 330 329 330 328 325 327 326 324 323 320 318 318 319 320 319 318 315 314 311 309 307 307 309 310 309 307 306 306 305 305 306 306 306 307
332 333 332 331 331 333 334 334 333 334 336 335 336 336 336 335 334 333 331 329 329 328 327 325 325 324 323 321 319 319 319 319 317 317 312 312 311 310 308 309 311 309 306 303 303 304 306 309 308 307 307 306
332 333 333 333 332 333 334 337 336 335 335 336 336 336 337 337 336 335 333 332 329 328 327 325 324 323 324 322 321 318 318 319 318 315 313 313 312 311 309 309 310 309 307 305 307 307 305 304 306 312 308 309
332 334 335 335 334 334 334 333 333 335 336 336 336 335 335 335 336 336 334 333 331 329 328 327 326 325 326 326 323 320 319 319 317 316 315 313 311 312 307 306 307 308 308 307 307 303 304 306 305 304 309 311
330 332 331 332 330 333 332 331 331 331 331 330 329 333 335 335 337 336 335 335 334 329 329 330 329 327 327 326 322 319 317 318 316 314 314 312 311 311 310 309 309 308 307 306 308 309 308 304 302 303 308 307
328 328 327 327 326 324 325 325 324 324 326 327 328 329 332 334 335 335 335 335 335 335 330 330 330 329 328 326 323 319 318 319 319 317 315 313 312 310 311 313 312 309 305 305 306 308 311 312 308 309 306 306
326 326 326 326 326 326 325 324 325 328 329 328 329 331 330 331 332 333 332 333 335 335 335 333 332 331 329 328 326 323 320 319 317 316 316 316 314 312 312 311 310 310 308 304 305 307 309 309 309 309 307 306
Wind_Speed
5 4 4 4 5 5 6 7 7 6 5 7 8 9 9 8 9 9 9 9 8 6 6 10 10 9 8 7 8 9 9 9 9 10 10 9 8 9 9 9 9 10 11 11 9 8 7 6 6 5 1 6
5 5 4 5 5 5 5 6 6 8 9 9 8 9 9 9 8 7 6 6 7 7 7 6 8 10 8 7 7 9 9 10 9 9 8 8 8 8 8 8 8 9 9 9 8 7 7 5 6 4 2 5
6 5 5 5 5 5 5 6 8 8 8 8 9 9 9 9 9 8 8 9 8 6 7 8 9 9 9 8 7 8 8 8 8 8 7 7 8 7 7 8 8 7 8 8 7 6 5 6 5 4 4 4
7 6 6 6 5 6 6 7 8 8 8 8 8 8 8 9 8 8 7 8 7 6 8 8 8 8 8 8 7 7 6 7 7 7 7 7 7 7 7 7 7 7 8 7 7 6 4 5 6 4 3 5
6 7 7 5 5 6 6 7 8 9 9 8 7 7 7 7 5 6 6 6 6 6 6 6 6 7 7 7 7 5 6 6 6 6 6 6 6 7 8 8 8 9 8 8 8 6 4 3 5 2 4 4
5 5 6 6 6 6 6 6 7 6 5 6 5 5 5 4 4 4 4 4 6 5 6 7 7 7 7 7 6 5 4 5 6 6 6 5 6 7 8 5 5 5 7 7 6 4 4 5 2 3 5 5
6 7 6 6 5 4 5 6 6 5 5 5 5 5 5 4 4 3 3 3 3 3 8 8 8 8 7 7 7 6 5 5 5 5 6 6 6 6 2 2 3 3 3 3 2 2 3 2 2 3 4 3
6 6 7 6 5 5 5 5 5 4 5 4 5 5 5 3 3 4 3 7 6 5 5 6 9 9 9 8 7 6 5 6 8 8 6 5 4 4 2 2 2 2 2 3 3 2 2 2 2 2 3 3
7 7 6 6 6 6 5 5 4 4 4 4 5 5 4 3 4 4 3 5 5 5 4 5 5 5 4 4 4 3 3 4 3 4 4 4 3 2 2 2 2 2 2 2 3 2 2 3 3 3 3 3
7 7 7 7 6 6 6 5 5 4 4 4 5 4 3 4 4 4 4 4 4 4 4 4 4 4 4 4 4 4 3 3 3 3 3 3 2 2 2 1 1 1 1 2 2 2 3 3 4 4 4 2
7 8 7 7 7 7 6 6 6 6 4 4 5 5 4 5 5 4 4 4 5 5 4 4 4 4 4 4 4 4 3 3 3 3 3 3 2 2 2 2 1 1 1 1 2 2 3 3 4 4 4 4
8 8 8 8 7 7 6 6 6 6 6 3 5 5 5 5 4 5 4 5 5 5 5 5 4 4 4 4 4 4 3 3 3 3 3 2 2 3 2 2 2 2 2 2 2 3 3 3 4 5 5 6
8 8 8 8 8 9 7 7 7 6 6 6 4 5 5 5 5 4 5 5 5 5 5 5 5 4 5 4 4 4 4 3 4 4 3 3 3 3 3 3 3 3 2 3 3 3 3 4 4 4 5 6
9 9 9 9 9 8 8 9 8 6 6 7 6 5 6 6 5 5 5 5 5 5 5 5 5 5 4 4 4 4 4 4 3 4 3 3 3 3 3 3 2 3 3 3 3 3 3 4 4 4 5 6
10 9 10 10 9 7 9 9 8 8 8 7 7 5 5 6 6 5 5 5 5 5 5 5 5 5 4 4 4 4 4 3 4 3 3 4 4 4 4 4 2 4 3 4 4 3 4 4 4 4 4 5
10 11 10 9 8 9 9 9 9 8 8 8 8 7 5 5 6 6 5 5 5 6 5 5 5 5 5 5 4 4 4 3 3 3 3 2 2 3 3 3 3 4 4 4 4 4 4 3 4 4 4 5
12 11 10 10 10 9 9 9 9 9 8 8 8 8 8 7 6 6 5 5 6 6 5 5 5 5 5 5 4 4 4 4 4 4 4 4 3 4 4 4 4 3 4 5 4 4 4 3 4 4 4 5
11 11 11 9 10 9 8 9 10 10 9 8 8 8 9 9 9 6 6 5 5 6 6 6 6 6 5 5 5 5 5 5 5 5 5 5 5 5 5 6 6 5 6 5 4 5 4 4 5 4 5 5
13 11 10 10 11 10 10 9 8 9 10 9 8 8 8 9 8 7 6 5 5 6 6 6 6 6 5 4 5 5 5 5 5 6 6 6 6 6 6 7 6 6 6 6 6 6 5 6 5 5 6 5
13 12 10 8 10 11 12 10 10 10 10 9 8 8 8 10 10 8 7 6 6 6 6 6 6 5 4 5 4 4 5 5 6 6 6 6 7 7 8 8 8 7 7 7 7 6 6 6 6 6 6 7
14 12 11 11 9 11 12 11 10 9 10 9 9 8 8 9 10 9 9 8 8 7 6 6 6 5 5 4 5 5 6 6 7 6 5 6 7 8 7 7 9 7 7 7 7 6 6 6 5 6 6 6
13 12 11 9 9 8 10 11 7 9 10 10 9 9 9 11 10 10 11 10 9 8 7 7 6 6 5 5 6 6 6 6 6 6 6 8 8 8 7 6 6 7 5 5 4 5 6 6 5 6 6 6
12 13 11 9 9 10 10 7 8 8 9 10 9 9 11 9 8 8 11 11 11 9 8 8 8 8 8 8 8 7 6 6 7 8 8 9 8 6 6 5 4 4 3 3 4 5 5 5 7 6 5 5
11 10 10 11 11 13 11 8 7 8 10 10 9 9 9 8 7 6 6 5 5 7 7 7 7 9 9 8 6 7 8 8 9 11 10 11 9 4 3 4 5 4 6 5 4 5 5 6 7 9 7 7
11 11 11 11 12 13 10 10 8 8 9 8 8 10 12 12 12 12 12 13 12 11 11 10 10 10 8 8 7 8 10 10 10 8 7 6 5 4 5 6 7 5 3 4 6 5 7 8 8 9 9 11
11 12 11 10 9 9 9 10 10 10 8 9 8 9 9 9 10 10 10 7 7 6 6 6 6 7 8 9 10 11 10 8 8 6 5 6 7 8 9 9 8 5 5 4 7 7 6 7 7 10 11 11
12 11 10 10 8 9 9 9 10 10 8 6 7 10 11 12 12 12 12 11 10 8 8 8 7 6 7 9 8 8 10 10 10 9 10 11 10 7 8 8 5 8 10 8 5 5 4 9 9 7 8 10
12 11 10 11 10 10 9 7 3 6 8 10 11 10 6 7 7 7 9 13 13 12 12 10 9 9 10 10 10 9 9 9 10 9 9 9 9 8 5 6 8 10 10 9 5 5 8 6 2 10 9 8
10 9 7 4 1 3 3 2 6 7 6 5 4 7 10 11 10 9 8 7 8 7 9 11 11 10 9 7 6 7 7 7 9 10 9 9 8 10 9 8 8 8 10 11 10 9 3 3 5 9 8 5
9 9 8 6 5 5 6 7 5 8 10 8 8 9 6 8 10 11 11 11 11 10 9 10 9 9 9 9 8 8 10 12 10 9 10 12 12 13 13 10 8 6 7 9 12 13 12 8 7 3 2 1
8 8 8 10 10 8 8 10 9 8 9 10 9 8 9 9 8 8 8 9 10 12 10 11 12 12 11 11 9 7 7 6 6 7 10 10 11 11 11 11 9 9 7 7 11 12 14 12 8 8 5 11
Wind_Direction
119 113 102 101 98 102 99 111 112 92 74 109 108 106 117 103 100 105 109 103 99 112 74 108 113 111 100 100 107 116 114 108 104 99 100 102 104 107 110 109 103 106 106 104 99 87 83 75 79 43 21 123
110 115 102 94 92 90 96 95 85 63 57 58 70 86 96 97 94 100 96 105 108 78 50 52 118 125 121 113 100 89 86 95 96 99 103 105 108 112 109 112 113 103 107 105 98 89 88 86 93 84 285 124
130 117 111 109 109 103 97 97 85 80 73 70 77 82 82 82 80 74 78 87 92 80 49 59 81 92 94 95 92 92 95 100 101 106 108 112 110 111 113 114 119 105 96 94 89 83 78 107 101 133 169 130
167 131 127 125 125 116 108 105 102 98 91 87 87 87 97 101 108 107 99 98 106 86 72 59 88 92 103 102 97 100 101 107 106 110 111 113 119 114 116 112 102 82 77 72 61 59 80 111 156 176 137 137
178 136 134 138 119 113 110 110 108 107 110 112 108 117 114 134 142 138 133 145 128 138 91 74 81 100 94 91 76 76 101 104 116 117 118 122 122 119 106 91 72 57 56 55 46 33 33 259 215 158 140 139
188 165 199 177 170 168 142 122 129 148 147 139 134 127 156 169 160 155 153 131 141 140 128 96 77 84 94 86 77 68 102 120 121 119 116 113 126 128 119 139 133 105 70 51 45 41 322 259 209 150 150 142
190 187 195 186 177 164 184 162 178 168 160 170 163 169 177 179 163 162 156 145 114 114 71 90 85 87 87 83 78 70 66 103 115 124 112 128 118 99 133 171 126 134 147 125 126 206 224 216 207 181 173 171
190 193 195 192 185 184 186 181 190 184 182 174 173 176 187 180 149 162 144 83 108 122 153 111 90 87 85 82 71 94 109 78 59 83 82 87 118 146 171 141 144 142 157 162 176 182 207 209 197 224 212 217
194 193 199 194 193 194 193 194 192 191 189 180 179 183 190 166 152 173 155 161 160 187 166 165 159 155 171 165 154 173 172 183 157 199 165 158 197 165 154 165 153 174 173 175 188 198 207 208 215 227 225 231
192 197 199 201 199 198 199 198 200 198 194 184 188 192 183 166 172 180 173 171 177 180 177 182 188 185 181 178 180 192 196 186 186 200 181 174 186 176 178 161 174 201 211 193 205 205 205 224 224 232 223 232
195 201 204 205 204 203 202 200 205 202 203 196 186 193 182 189 187 189 184 181 184 185 189 193 193 195 187 187 190 193 193 182 186 205 189 191 186 176 180 176 177 192 213 236 218 210 207 227 234 237 228 219
203 204 206 207 197 208 204 206 207 212 206 196 194 195 196 203 195 193 193 189 190 192 198 200 199 198 196 199 197 194 202 188 196 199 202 197 180 187 188 194 198 198 207 209 227 219 220 221 234 240 240 231
204 208 210 206 205 212 201 211 214 211 214 211 207 193 199 201 201 199 199 195 196 196 202 199 199 201 207 202 199 194 203 200 198 201 205 201 202 206 206 198 204 208 213 225 221 239 225 231 239 247 246 243
205 208 212 212 209 210 205 216 218 212 213 218 208 200 198 202 212 207 204 198 200 200 202 201 201 209 209 207 201 201 208 203 208 205 202 207 208 210 216 218 208 218 213 227 234 239 242 237 246 244 247 250
204 206 212 212 210 206 211 213 217 215 221 221 218 209 189 198 212 212 210 206 201 205 204 205 206 213 209 210 204 206 212 195 213 214 216 211 217 217 221 226 204 227 229 226 229 230 243 246 249 249 249 250
210 209 211 213 212 209 210 209 214 217 218 219 221 216 182 205 206 215 213 212 205 209 206 210 211 212 210 214 202 205 209 196 206 218 212 200 239 243 236 234 222 226 242 236 233 227 233 242 249 252 247 245
215 214 212 212 215 214 209 210 214 217 217 218 219 220 214 212 214 210 215 210 210 209 215 216 210 213 213 214 203 199 191 188 198 208 209 201 204 225 234 237 230 215 244 245 236 231 230 236 237 245 252 247
217 218 217 214 217 216 207 213 215 216 218 218 219 217 215 217 220 218 215 216 209 212 221 218 215 218 213 211 194 192 184 202 207 213 211 209 200 212 222 225 229 221 225 229 227 230 221 227 236 237 238 242
224 220 215 216 222 221 216 214 213 216 219 217 213 211 216 212 218 217 220 216 218 216 224 222 220 215 219 201 188 190 199 206 207 216 214 206 211 211 219 229 225 225 232 227 223 225 215 220 220 223 231 230
223 225 222 215 217 221 220 218 218 218 216 212 207 206 209 212 219 221 216 217 221 229 224 227 225 218 210 180 182 198 197 209 217 219 224 218 215 216 219 221 224 219 227 226 228 220 219 223 214 221 218 219
226 226 227 226 217 217 213 217 219 222 225 217 214 204 205 213 214 207 208 205 206 223 222 225 230 225 204 183 196 201 200 204 214 213 214 229 227 234 234 220 228 222 224 230 232 230 227 229 229 232 227 217
224 227 228 231 230 223 219 213 209 215 220 220 217 215 213 215 201 206 207 204 200 203 203 209 216 218 200 198 209 212 206 213 215 218 214 228 226 224 233 233 229 233 234 241 239 243 246 244 241 249 250 241
224 226 228 230 233 233 229 218 215 208 212 213 208 213 213 200 193 200 209 208 202 202 205 210 211 212 202 199 211 214 211 214 221 227 227 232 234 218 228 241 246 247 242 243 250 252 255 265 261 257 252 257
224 224 226 227 230 234 231 224 213 211 213 215 221 220 216 212 211 210 212 204 197 213 217 213 208 212 207 201 192 206 215 212 212 211 213 222 226 207 223 261 258 249 245 249 252 258 257 250 257 257 254 251
221 220 222 226 233 235 234 230 224 221 218 216 209 204 212 208 207 198 199 206 208 208 213 214 209 204 198 189 187 212 223 220 222 214 201 210 204 201 220 235 229 221 197 257 268 241 245 252 236 240 237 243
221 224 223 223 223 229 232 229 222 224 215 218 216 227 229 219 215 215 212 209 217 219 214 211 216 205 205 201 204 209 216 211 211 195 193 206 222 213 219 234 210 183 148 231 234 257 268 254 240 228 228 231
226 224 226 228 235 229 235 235 239 235 227 219 230 218 213 220 224 218 220 215 211 220 223 224 224 222 218 210 207 207 217 217 214 205 201 202 213 214 212 228 194 194 191 235 221 232 291 272 280 243 222 227
229 227 227 230 242 241 240 234 201 234 240 240 232 232 236 246 243 236 224 215 210 208 212 209 217 222 225 217 208 209 214 215 215 210 216 209 209 212 214 209 225 206 208 218 198 239 222 270 291 286 259 249
227 227 222 213 157 244 247 263 247 247 244 235 255 260 238 235 232 234 238 235 219 215 219 215 218 216 218 221 211 210 214 211 211 203 206 201 208 210 221 222 214 206 203 210 218 240 240 218 244 237 272 308
218 219 221 200 200 210 212 226 218 225 239 245 232 236 244 257 249 246 245 245 243 226 213 230 234 235 234 228 215 205 213 222 218 207 207 205 202 209 216 231 223 221 189 208 218 230 243 247 267 312 126 23
215 219 223 226 228 233 240 245 248 247 246 248 248 245 244 245 243 238 242 246 246 250 240 235 232 228 230 232 228 217 226 237 220 210 211 211 209 211 204 207 229 220 211 198 227 226 234 249 260 249 261 260